CW2751 Weather Reports


Display with metric or nautical units.
time (UTC)temp
F
wind
direction
speed
MPH
gust
MPH
rain 1hr
in
rain 24hr
in
rain mn
in
humidity
%
barometer
mb
20260504213042 82 325 5.0 0.0 0.00 0.00 0.00 12 993.8
20260504211522 82 284 4.0 0.0 0.00 0.00 0.00 11 993.6
20260504210049 83 316 5.0 0.0 0.00 0.00 0.00 13 993.7
20260504204506 81 213 6.0 0.0 0.00 0.00 0.00 11 994.1
20260504203037 84 137 3.0 0.0 0.00 0.00 0.00 11 994.0
20260504201540 85 316 3.0 0.0 0.00 0.00 0.00 12 994.0
20260504200050 83 72 5.0 0.0 0.00 0.00 0.00 14 993.6
20260504194604 83 230 6.0 0.0 0.00 0.00 0.00 12 993.9
20260504193014 83 277 4.0 0.0 0.00 0.00 0.00 13 994.1
20260504191512 82 326 5.0 0.0 0.00 0.00 0.00 15 994.2
20260504190100 82 312 5.0 0.0 0.00 0.00 0.00 15 994.6
20260504184518 81 320 4.0 0.0 0.00 0.00 0.00 17 994.9
20260504183056 80 8 5.0 0.0 0.00 0.00 0.00 18 995.2
20260504183002 80 340 5.0 0.0 0.00 0.00 0.00 18 995.2
20260504181510 79 326 4.0 0.0 0.00 0.00 0.00 17 995.5
20260504180018 80 308 4.0 0.0 0.00 0.00 0.00 18 995.4
20260504174526 79 51 5.0 0.0 0.00 0.00 0.00 20 995.9
20260504173023 79 288 5.0 0.0 0.00 0.00 0.00 20 996.1
20260504171539 78 310 5.0 0.0 0.00 0.00 0.00 18 996.3
20260504140108 58 315 4.0 0.0 0.00 0.00 0.00 41 997.6
20260504081546 54 3 2.0 0.0 0.00 0.00 0.00 47 997.5
20260504050012 57 145 2.0 0.0 0.00 0.00 0.00 37 999.5
20260504044546 57 113 2.0 0.0 0.00 0.00 0.00 37 999.5
20260504043040 57 121 1.0 0.0 0.00 0.00 0.00 37 999.5
20260504041502 57 102 2.0 0.0 0.00 0.00 0.00 36 999.8
20260504040035 57 107 4.0 0.0 0.00 0.00 0.00 35 1000.2
20260504034551 58 87 3.0 0.0 0.00 0.00 0.00 35 1000.4
20260504033013 59 78 3.0 0.0 0.00 0.00 0.00 33 1000.3
20260504031524 60 46 3.0 0.0 0.00 0.00 0.00 30 1000.2
20260504030044 62 45 4.0 0.0 0.00 0.00 0.00 28 999.8
20260504024604 63 49 3.0 0.0 0.00 0.00 0.00 27 999.1
20260504023100 65 51 3.0 0.0 0.00 0.00 0.00 25 998.8
20260504023003 66 46 3.0 0.0 0.00 0.00 0.00 25 998.8
20260504021508 68 41 1.0 0.0 0.00 0.00 0.00 24 998.5
20260504020016 71 54 1.0 0.0 0.00 0.00 0.00 21 998.6
20260504014518 73 80 2.0 0.0 0.00 0.00 0.00 20 998.3
20260504013042 75 80 2.0 0.0 0.00 0.00 0.00 19 998.0
20260504011512 77 82 3.0 0.0 0.00 0.00 0.00 18 997.8
20260504010056 76 61 3.0 0.0 0.00 0.00 0.00 16 999.1
20260504004602 77 62 4.0 0.0 0.00 0.00 0.00 15 999.2
20260504003004 78 17 3.0 0.0 0.00 0.00 0.00 14 999.0
20260504001510 78 48 5.0 0.0 0.00 0.00 0.00 14 999.1
20260504000010 77 354 4.0 0.0 0.00 0.00 0.00 16 999.8
20260503234516 78 357 5.0 0.0 0.00 0.00 0.00 15 999.8
20260503233024 79 330 4.0 0.0 0.00 0.00 0.00 13 999.9
20260503231548 80 326 5.0 0.0 0.00 0.00 0.00 13 999.6
20260503224548 80 271 4.0 0.0 0.00 0.00 0.00 12 999.9
20260503223010 82 323 5.0 0.0 0.00 0.00 0.00 13 999.7
20260503221522 81 342 2.0 0.0 0.00 0.00 0.00 14 1000.1
20260503220022 80 18 5.0 0.0 0.00 0.00 0.00 14 1000.1
20260503214547 79 8 4.0 0.0 0.00 0.00 0.00 14 1000.7